This is the latest recevied weather packets stored in our database for station/object KF6ILA. If no packets are shown the sender has not sent any weather packets the latest 1 day(s).
| Time | Temp. | Humidity | Pressure | Rain* | Wind** | Luminosity | Snow |
|---|---|---|---|---|---|---|---|
| 1778038496 | 5° C | 97% | 1012.4 hPa | 0 mm | 5.81 m/s, 257° | 0 W/m² | - |
| 1778038456 | 5° C | 97% | 1012.4 hPa | 0 mm | 5.81 m/s, 257° | 0 W/m² | - |
| 1778038158 | 5.56° C | 97% | 1012.3 hPa | 0 mm | 6.26 m/s, 250° | 0 W/m² | - |
| 1778037861 | 5.56° C | 96% | 1012.2 hPa | 0 mm | 6.26 m/s, 259° | 0 W/m² | - |
| 1778037267 | 5.56° C | 96% | 1012.1 hPa | 0 mm | 6.71 m/s, 269° | 0 W/m² | - |
| 1778036970 | 5.56° C | 96% | 1012.2 hPa | 0 mm | 5.81 m/s, 270° | 0 W/m² | - |
| 1778036376 | 5.56° C | 95% | 1012.1 hPa | 0 mm | 6.26 m/s, 260° | 0 W/m² | - |
| 1778036079 | 5.56° C | 95% | 1011.9 hPa | 0 mm | 5.81 m/s, 256° | 0 W/m² | - |
| 1778035782 | 5.56° C | 95% | 1011.9 hPa | 0 mm | 5.36 m/s, 260° | 0 W/m² | - |
| 1778035188 | 5.56° C | 94% | 1011.9 hPa | 0 mm | 4.92 m/s, 267° | 0 W/m² | - |
| 1778034891 | 5.56° C | 94% | 1011.8 hPa | 0 mm | 5.81 m/s, 257° | 0 W/m² | - |
| 1778034595 | 5.56° C | 93% | 1011.7 hPa | 0 mm | 7.15 m/s, 258° | 0 W/m² | - |
| 1778034296 | 5.56° C | 93% | 1011.6 hPa | 0 mm | 8.05 m/s, 251° | 5 W/m² | - |
| 1778034000 | 5.56° C | 93% | 1011.6 hPa | 0 mm | 7.15 m/s, 252° | 9 W/m² | - |
| 1778033406 | 5.56° C | 92% | 1011.5 hPa | 0 mm | 7.15 m/s, 251° | 11 W/m² | - |
| 1778033109 | 6.11° C | 91% | 1011.5 hPa | 0 mm | 5.81 m/s, 266° | 14 W/m² | - |
| 1778032812 | 6.11° C | 90% | 1011.4 hPa | 0 mm | 4.47 m/s, 264° | 18 W/m² | - |
| 1778032514 | 6.11° C | 90% | 1011.3 hPa | 0 mm | 5.81 m/s, 266° | 26 W/m² | - |
| 1778032219 | 6.11° C | 89% | 1011.1 hPa | 0 mm | 5.81 m/s, 268° | 26 W/m² | - |
| 1778031921 | 6.11° C | 88% | 1011.1 hPa | 0 mm | 6.26 m/s, 270° | 26 W/m² | - |
| 1778031776 | 6.67° C | 87% | 1010.9 hPa | 0 mm | 5.81 m/s, 260° | 26 W/m² | - |
| 1778031624 | 6.67° C | 87% | 1010.9 hPa | 0 mm | 5.81 m/s, 260° | 26 W/m² | - |
| 1778031327 | 6.67° C | 86% | 1011 hPa | 0 mm | 6.71 m/s, 266° | 35 W/m² | - |
| 1778031139 | 7.22° C | 85% | 1011.1 hPa | 0 mm | 6.71 m/s, 271° | 72 W/m² | - |
| 1778031030 | 7.22° C | 85% | 1011.1 hPa | 0 mm | 6.71 m/s, 271° | 72 W/m² | - |
* Rain latest hour (hover to see other rain measurements)
** Current wind speed in m/s (hover to see current wind gust speed)